Location: Ferma
(41.9500°N, 44.5167°E)
Time: 11:19:11
(UTC+00:00)

Cosmos 1269 Rocket - Pass Details

Date: 30 May 2022
Orbit: 773 x 778 km, 74.1° (Epoch: 01 July)

Event Time Altitude Azimuth Distance (km) Brightness Sun altitude
Rises 21:53:20 0° 339° (NNW) 3,257 8.1 -25.0°
Reaches altitude 10° 21:55:43 10° 339° (NNW) 2,326 7.2 -24.9°
Maximum altitude 22:01:01 85° 252° (WSW) 782 3.9 -24.6°
Enters shadow 22:01:38 70° 176° (S) 822 3.8 -24.6°
